WV8MT Weather Reports


Display with metric or nautical units.
time (UTC)temp
F
wind
direction
speed
MPH
gust
MPH
rain 1hr
in
rain 24hr
in
rain mn
in
humidity
%
barometer
mb
20260508012022 49 0.0 0.0 0.00 0.00 0.00 71 1016.2
20260508011026 49 0.0 0.0 0.00 0.00 0.00 71 1016.0
20260508010030 49 0.0 0.0 0.00 0.00 0.00 74 1015.8
20260508005018 50 0.0 0.0 0.00 0.00 0.00 72 1015.6
20260508004020 52 0.0 0.0 0.00 0.00 0.00 66 1015.6
20260508003024 53 0.0 0.0 0.00 0.00 0.00 60 1015.5
20260508002028 55 197 1.0 5.0 0.00 0.00 0.00 58 1015.4
20260508001026 56 158 1.0 6.0 0.00 0.00 0.00 54 1015.2
20260508000019 56 225 1.0 5.0 0.00 0.00 0.00 54 1015.1
20260507235042 56 338 0.0 2.0 0.00 0.00 0.00 59 1014.8
20260507234020 57 0.0 0.0 0.00 0.00 0.00 57 1014.7
20260507233018 58 23 1.0 5.0 0.00 0.00 0.00 51 1014.6
20260507232016 59 90 0.0 4.0 0.00 0.00 0.00 51 1014.6
20260507231020 60 63 1.0 4.0 0.00 0.00 0.00 50 1014.3
20260507230024 61 28 5.0 12.0 0.00 0.00 0.00 49 1014.3
20260507225028 62 194 10.0 13.0 0.00 0.00 0.00 46 1014.1
20260507224052 64 18 5.0 8.0 0.00 0.00 0.00 46 1014.1
20260507223018 64 23 2.0 11.0 0.00 0.00 0.00 47 1013.9
20260507222022 65 270 1.0 8.0 0.00 0.00 0.00 45 1013.7
20260507221026 66 180 7.0 11.0 0.00 0.00 0.00 43 1013.6
20260507220030 66 295 3.0 9.0 0.00 0.00 0.00 45 1013.3
20260507215016 65 343 5.0 11.0 0.00 0.00 0.00 46 1013.3
20260507214021 64 337 8.0 12.0 0.00 0.00 0.00 48 1013.2
20260507213024 64 57 8.0 14.0 0.00 0.00 0.00 48 1013.2
20260507212048 64 15 6.0 11.0 0.00 0.00 0.00 49 1013.1
20260507211032 62 26 6.0 12.0 0.00 0.00 0.00 50 1013.1
20260507210018 63 359 9.0 14.0 0.00 0.00 0.00 49 1013.0
20260507205022 62 344 5.0 11.0 0.00 0.00 0.00 50 1012.9
20260507204026 64 258 4.0 8.0 0.00 0.00 0.00 49 1012.7
20260507203030 65 30 14.0 20.0 0.00 0.00 0.00 50 1012.5
20260507202015 67 30 10.0 16.0 0.00 0.00 0.00 47 1012.5
20260507201020 68 67 4.0 12.0 0.00 0.00 0.00 45
20260507200024 67 270 1.0 7.0 0.00 0.00 0.00 45 1012.9
20260507195028 68 317 6.0 13.0 0.00 0.00 0.00 45 1012.7
20260507194032 70 9 7.0 15.0 0.00 0.00 0.00 45 1012.8
20260507193018 71 308 4.0 12.0 0.00 0.00 0.00 45 1012.9
20260507192022 71 323 3.0 7.0 0.00 0.00 0.00 46 1013.2
20260507191046 70 295 2.0 5.0 0.00 0.00 0.00 46 1013.2
20260507190024 70 241 5.0 17.0 0.00 0.00 0.00 48 1013.4
20260507185036 71 208 5.0 12.0 0.00 0.00 0.00 49 1013.3
20260507184020 67 49 5.0 14.0 0.00 0.00 0.00 52 1013.3
20260507183018 65 324 10.0 12.0 0.00 0.00 0.00 53 1013.4
20260507182016 69 332 5.0 8.0 0.00 0.00 0.00 53 1013.5
20260507181032 66 36 5.0 8.0 0.00 0.00 0.00 55 1013.6
20260507173038 64 98 5.0 8.0 0.00 0.00 0.00 58 1014.3
20260507172021 62 186 3.0 7.0 0.00 0.00 0.00 60 1014.5
20260507171021 62 166 1.0 7.0 0.00 0.00 0.00 59 1014.6
20260507170105 62 90 6.0 8.0 0.00 0.00 0.00 60 1014.7
20260507165029 63 230 1.0 7.0 0.00 0.00 0.00 59 1014.8
20260507164035 63 260 3.0 7.0 0.00 0.00 0.00 59 1014.8
20260507163022 66 58 3.0 9.0 0.00 0.00 0.00 56 1015.0
20260507162103 66 1 4.0 8.0 0.00 0.00 0.00 55 1015.1
20260507161047 68 171 2.0 6.0 0.00 0.00 0.00 53 1015.3
20260507160031 67 67 2.0 7.0 0.00 0.00 0.00 54 1015.4
20260507155017 64 177 2.0 5.0 0.00 0.00 0.00 57 1015.8
20260507154022 61 46 5.0 8.0 0.00 0.00 0.00 63 1015.8
20260507153025 60 53 5.0 7.0 0.00 0.00 0.00 65 1015.8
20260507152029 58 76 7.0 10.0 0.00 0.00 0.00 65 1015.8
20260507151036 59 0 3.0 8.0 0.00 0.00 0.00 67 1015.9
20260507150019 58 29 7.0 12.0 0.00 0.00 0.00 69
20260507145023 60 83 3.0 7.0 0.00 0.00 0.00 70 1016.2
20260507144047 57 305 1.0 4.0 0.00 0.00 0.00 74 1016.3
20260507142017 55 62 1.0 3.0 0.00 0.00 0.00 81 1016.8
20260507141022 54 37 1.0 4.0 0.00 0.00 0.00 84 1016.8
20260507140025 53 11 1.0 2.0 0.00 0.00 0.00 85 1017.0
20260507135023 53 40 1.0 2.0 0.00 0.00 0.00 88 1017.0
20260507134015 52 338 0.0 2.0 0.00 0.00 0.00 92 1017.0
20260507133019 51 326 1.0 2.0 0.00 0.00 0.00 94 1017.1
20260507132018 51 315 0.0 2.0 0.00 0.00 0.00 95 1017.2
20260507131015 51 45 0.0 2.0 0.00 0.00 0.00 95 1017.4
20260507130031 51 23 0.0 2.0 0.00 0.00 0.00 96 1017.3
20260507125018 50 0.0 0.0 0.00 0.00 0.00 95 1017.4
20260507124021 50 0.0 0.0 0.00 0.00 0.00 96 1017.4
20260507123025 50 0.0 0.0 0.00 0.00 0.00 95 1017.3
20260507122029 50 0.0 0.0 0.00 0.00 0.00 95 1017.1
20260507121055 50 0.0 0.0 0.00 0.00 0.00 95 1017.0
20260507120039 50 0.0 0.0 0.00 0.01 0.00 95 1017.0
20260507115023 50 0.0 0.0 0.00 0.02 0.00 96 1016.8
20260507114027 50 55 0.0 2.0 0.00 0.04 0.00 96 1016.7
20260507113051 50 0.0 0.0 0.00 0.06 0.00 96 1016.7
20260507112017 50 0.0 0.0 0.00 0.06 0.00 96 1016.4
20260507111021 50 0.0 0.0 0.00 0.07 0.00 97 1016.4
20260507110025 50 0.0 0.0 0.00 0.07 0.00 97 1016.2
20260507105029 50 0.0 0.0 0.00 0.08 0.00 99 1016.2
20260507104016 50 0.0 0.0 0.00 0.08 0.00 99 1016.3
20260507103039 50 0.0 0.0 0.00 0.08 0.00 99 1016.4
20260507102023 50 0.0 0.0 0.00 0.08 0.00 99 1016.4
20260507101047 50 0.0 0.0 0.00 0.08 0.00 98 1016.4
20260507100031 50 0.0 0.0 0.00 0.08 0.00 98 1016.2
20260507095037 50 0.0 0.0 0.00 0.08 0.00 98 1016.4
20260507092030 50 47 2.0 2.0 0.00 0.08 0.00 98 1016.0
20260507091015 50 40 2.0 2.0 0.00 0.08 0.00 98 1015.8
20260507090020 50 45 2.0 4.0 0.00 0.08 0.00 98 1015.9
20260507085023 51 0.0 0.0 0.00 0.08 0.00 98 1015.7
20260507084021 51 0 0.0 2.0 0.00 0.08 0.00 98 1015.7
20260507083019 51 22 3.0 6.0 0.00 0.08 0.00 98 1015.6
20260507082017 51 359 0.0 2.0 0.00 0.08 0.00 98 1015.8
20260507081015 51 27 2.0 6.0 0.00 0.08 0.00 98 1015.9
20260507080025 52 14 5.0 7.0 0.00 0.08 0.00 97 1016.2
20260507075051 52 30 5.0 6.0 0.00 0.08 0.00 97 1016.0
20260507074055 52 34 6.0 8.0 0.00 0.08 0.00 97 1016.0
20260507073039 53 37 5.0 6.0 0.00 0.08 0.00 96 1015.8
20260507072023 53 37 6.0 7.0 0.00 0.08 0.00 96 1015.8
20260507071027 53 35 6.0 8.0 0.00 0.08 0.00 96 1015.5
20260507070032 54 28 6.0 10.0 0.00 0.08 0.00 96 1015.5
20260507065017 54 23 7.0 8.0 0.00 0.08 0.00 96 1015.3
20260507064021 55 40 8.0 11.0 0.00 0.08 0.00 95 1015.3
20260507063025 55 47 9.0 12.0 0.00 0.08 0.00 94 1015.3
20260507062029 56 36 8.0 10.0 0.00 0.08 0.00 94 1015.4
20260507061015 56 30 8.0 10.0 0.00 0.08 0.00 93 1015.4
20260507060019 57 44 7.0 9.0 0.00 0.08 0.00 93 1015.4
20260507055025 57 57 6.0 9.0 0.00 0.08 0.00 93 1015.8
20260507054029 58 49 6.0 9.0 0.00 0.08 0.00 93 1015.6
20260507053031 58 41 6.0 8.0 0.00 0.08 0.00 93 1015.6
20260507052017 58 26 7.0 9.0 0.00 0.08 0.00 92 1015.6
20260507051041 59 30 6.0 9.0 0.00 0.08 0.00 92 1015.3
20260507050025 59 45 0.0 2.0 0.00 0.08 0.00 92 1015.3
20260507045029 59 51 7.0 9.0 0.00 0.08 0.00 92 1015.2
20260507044016 59 42 5.0 8.0 0.00 0.08 0.00 92 1015.1
20260507043019 59 0.0 0.0 0.00 0.08 0.00 94
20260507042024 59 41 5.0 6.0 0.00 0.08 0.00 94 1014.8
20260507041027 59 0.0 0.0 0.00 0.08 0.00 97 1014.3
20260507040045 59 0.0 0.0 0.00 0.08 0.00 97 1013.9
20260507035018 59 0.0 0.0 0.00 0.08 0.08 97 1014.9
20260507034021 59 0.0 0.0 0.00 0.08 0.08 95 1015.5
20260507033040 60 0.0 0.0 0.00 0.08 0.08 96 1015.9
20260507032018 60 0.0 0.0 0.00 0.08 0.08 93 1015.7
20260507031015 61 0.0 0.0 0.00 0.08 0.08 92 1015.7
20260507030021 61 0.0 0.0 0.00 0.08 0.08 91 1015.2
20260507025024 61 0.0 0.0 0.00 0.08 0.08 89 1015.1
20260507024028 61 0.0 0.0 0.00 0.08 0.08 88 1015.3
20260507023032 61 298 1.0 5.0 0.00 0.08 0.08 88 1015.3
20260507022018 61 338 0.0 4.0 0.00 0.08 0.08 88 1015.3
20260507021022 61 0.0 0.0 0.00 0.08 0.08 91 1015.1
20260507020046 62 0.0 0.0 0.00 0.08 0.08 90 1014.3
20260507015029 62 0.0 0.0 0.00 0.08 0.08 86 1014.5
20260507014015 63 0.0 0.0 0.00 0.08 0.08 84 1014.8
20260507013019 63 288 5.0 9.0 0.00 0.08 0.08 84 1014.9